Prague, Czech Republic

11:48 PM CEST on August 17, 2017 (GMT +0200)
Ruzyne

Weather History for LKPR - July, 2013

Change the Weather History Date:

Tuesday, July 9, 2013

  Actual Average Record
Temperature  
Mean Temperature 66 °F -  
Max Temperature 78 °F 74 °F 87 °F (2010)
Min Temperature 54 °F 53 °F 46 °F (2005)
Cooling Degree Days 1    
Growing Degree Days 16 (Base 50)    
Moisture  
Dew Point 55 °F    
Average Humidity 64    
Maximum Humidity 94    
Minimum Humidity 37    
Precipitation  
Precipitation 0.00 in 0.09 in - ()
Sea Level Pressure  
Sea Level Pressure 30.25 in    
Wind  
Wind Speed 4 mph ()    
Max Wind Speed 8 mph    
Max Gust Speed -    
Visibility 7.6 miles    
Events      
Averages and records for this station are not official NWS values.
T = Trace of Precipitation, MM = Missing Value Source: Averaged Metar Reports

Daily Weather History Graph

Daily Weather History Graph

Search for Another Location

Airport or City:

Trip Planner

Search our weather history database for the weather conditions in past years. The results will help you decide how hot, cold, wet, or windy it might be!

Date:

Astronomy

Jul. 09, 2013 Rise Set
Actual Time 5:03 AM CEST 9:11 PM CEST
Civil Twilight 4:20 AM CEST 9:55 PM CEST
Nautical Twilight 3:18 AM CEST 10:56 PM CEST
Astronomical Twilight 1:40 AM CEST 12:35 AM CEST
Moon 6:25 AM CEST (7/9) 9:23 PM CEST (7/9)
Length of Visible Light 17h 34m
Length of Day
16h 08m
New Moon, 1% of the Moon is Illuminated
Jul 9
New Moon
Jul 16
First Quarter
Jul 22
Full
Jul 29
Last Quarter
Aug 6
New

Hourly Weather History & Observations

Time (CEST) Temp. Dew Point Humidity Pressure Visibility Wind Dir Wind Speed Gust Speed Precip Events Conditions
12:00 AM 64.4 °F 55.4 °F 73% 30.36 in - East 3.5 mph - N/A   Clear
12:30 AM 59.0 °F 55.4 °F 88% 30.36 in - East 3.5 mph - N/A   Clear
1:00 AM 60.8 °F 55.4 °F 82% 30.36 in - ESE 3.5 mph - N/A   Clear
1:30 AM 59.0 °F 55.4 °F 88% 30.36 in - Variable 2.3 mph - N/A   Clear
2:00 AM 58 °F 54 °F 83% 30.35 in 31 mi NW 2.2 mph - -   Partly Cloudy
2:00 AM 59.0 °F 53.6 °F 82% 30.36 in - NW 1.2 mph - N/A   Clear
2:30 AM 59.0 °F 53.6 °F 82% 30.33 in - Calm Calm - N/A   Clear
3:00 AM 57.2 °F 53.6 °F 88% 30.33 in - NNW 2.3 mph - N/A   Clear
3:30 AM 55.4 °F 51.8 °F 88% 30.33 in - North 1.2 mph - N/A   Clear
4:00 AM 55.4 °F 51.8 °F 88% 30.33 in - NNW 2.3 mph - N/A   Clear
4:30 AM 55.4 °F 53.6 °F 94% 30.33 in - NW 3.5 mph - N/A   Clear
5:00 AM 57.2 °F 53.6 °F 88% 30.30 in - NW 3.5 mph - N/A   Clear
5:30 AM 57.2 °F 53.6 °F 88% 30.30 in - North 3.5 mph - N/A   Clear
6:00 AM 57.2 °F 53.6 °F 88% 30.30 in - Variable 2.3 mph - N/A   Clear
6:30 AM 59.0 °F 55.4 °F 88% 30.30 in - NNW 2.3 mph - N/A   Clear
7:00 AM 60.8 °F 55.4 °F 82% 30.30 in - Variable 2.3 mph - N/A   Clear
7:30 AM 64.4 °F 57.2 °F 77% 30.30 in - Variable 2.3 mph - N/A   Clear
8:00 AM 67 °F 56 °F 59% 30.29 in 19 mi North 4.5 mph - -   Scattered Clouds
8:00 AM 66.2 °F 57.2 °F 73% 30.30 in - NNE 3.5 mph - N/A   Clear
8:30 AM 68.0 °F 57.2 °F 68% 30.30 in - NNE 3.5 mph - N/A   Clear
9:00 AM 69.8 °F 55.4 °F 60% 30.30 in - NE 4.6 mph - N/A   Clear
9:30 AM 71.6 °F 55.4 °F 57% 30.30 in - NE 4.6 mph - N/A   Clear
10:00 AM 71.6 °F 55.4 °F 57% 30.30 in 6.2 mi NNE 6.9 mph - N/A   Partly Cloudy
10:30 AM 71.6 °F 55.4 °F 57% 30.27 in 6.2 mi NE 5.8 mph - N/A   Partly Cloudy
11:00 AM 73.4 °F 55.4 °F 53% 30.27 in 6.2 mi NE 6.9 mph - N/A   Scattered Clouds
11:30 AM 71.6 °F 53.6 °F 53% 30.27 in 6.2 mi ENE 6.9 mph - N/A   Mostly Cloudy
12:00 PM 75.2 °F 57.2 °F 53% 30.27 in 6.2 mi NE 5.8 mph - N/A   Mostly Cloudy
12:30 PM 73.4 °F 53.6 °F 50% 30.27 in 6.2 mi ENE 6.9 mph - N/A   Scattered Clouds
1:00 PM 75.2 °F 55.4 °F 50% 30.24 in 6.2 mi NE 8.1 mph - N/A   Scattered Clouds
1:30 PM 75.2 °F 55.4 °F 50% 30.24 in 6.2 mi NE 8.1 mph - N/A   Scattered Clouds
2:00 PM 75 °F 54 °F 37% 30.19 in 25 mi NNE 6.7 mph - -   Partly Cloudy
2:00 PM 77.0 °F 55.4 °F 47% 30.24 in - NNE 6.9 mph - N/A   Clear
2:30 PM 77.0 °F 55.4 °F 47% 30.21 in - NNE 5.8 mph - N/A   Clear
3:00 PM 77.0 °F 55.4 °F 47% 30.21 in - ENE 6.9 mph - N/A   Clear
3:30 PM 77.0 °F 53.6 °F 44% 30.21 in - NE 6.9 mph - N/A   Clear
4:00 PM 77.0 °F 55.4 °F 47% 30.21 in - ENE 6.9 mph - N/A   Clear
4:30 PM 77.0 °F 53.6 °F 44% 30.18 in - ENE 5.8 mph - N/A   Clear
5:00 PM 78.8 °F 55.4 °F 44% 30.18 in - East 4.6 mph - N/A   Clear
5:30 PM 78.8 °F 55.4 °F 44% 30.18 in - NNE 4.6 mph - N/A   Clear
6:00 PM 77.0 °F 55.4 °F 47% 30.15 in - North 8.1 mph - N/A   Clear
6:30 PM 77.0 °F 55.4 °F 47% 30.15 in - NNE 6.9 mph - N/A   Clear
7:00 PM 77.0 °F 57.2 °F 50% 30.15 in - North 5.8 mph - N/A   Clear
7:30 PM 77.0 °F 57.2 °F 50% 30.15 in - North 4.6 mph - N/A   Clear
8:00 PM 75 °F 57 °F 43% 30.10 in 25 mi North 4.5 mph - -   Mostly Cloudy
8:00 PM 73.4 °F 57.2 °F 57% 30.12 in - North 4.6 mph - N/A   Clear
8:30 PM 73.4 °F 59.0 °F 61% 30.12 in - North 4.6 mph - N/A   Clear
9:00 PM 73.4 °F 57.2 °F 57% 30.12 in - NNE 3.5 mph - N/A   Clear
9:30 PM 73.4 °F 55.4 °F 53% 30.15 in - North 3.5 mph - N/A   Clear
10:00 PM 69.8 °F 59.0 °F 68% 30.15 in - North 3.5 mph - N/A   Clear
10:30 PM 68.0 °F 59.0 °F 73% 30.15 in - NNW 4.6 mph - N/A   Clear
11:00 PM 66.2 °F 57.2 °F 73% 30.15 in - NW 6.9 mph - N/A   Clear
11:30 PM 64.4 °F 57.2 °F 77% 30.12 in - WNW 5.8 mph - N/A   Clear